NKS787 KDTW-KDFW

Flight info

Callsign NKS787
Flight time N/A
Altitude 36000
Route SNDRS3 BGHRT STL RZC FSM RRNET SEEVR4
Aircraft A20N/M-SDE2E3FGHIRWXY/LB1

Departure

Time 2026-05-05 18:30
Airport Detroit Metropolitan Wayne County Airport (KDTW)

Arrival

Time N/A
Airport Dallas Fort Worth International Airport (KDFW)
Time Latitude Longitude Altitude Speed Heading
2026-05-05 18:10 42.22721 -83.34795 649 ft 0 kts 105°
2026-05-05 18:11 42.22722 -83.34801 650 ft 2 kts 105°
2026-05-05 18:11 42.22728 -83.34826 650 ft 3 kts 110°
2026-05-05 18:11 42.22735 -83.34851 652 ft 3 kts 119°
2026-05-05 18:12 42.22746 -83.34873 653 ft 3 kts 143°
2026-05-05 18:12 42.22759 -83.34881 653 ft 2 kts 197°
2026-05-05 18:12 42.22764 -83.34880 649 ft 0 kts 208°
2026-05-05 18:15 42.22763 -83.34880 650 ft 1 kts 208°
2026-05-05 18:15 42.22729 -83.34905 650 ft 11 kts 208°
2026-05-05 18:15 42.22644 -83.34968 650 ft 13 kts 209°
2026-05-05 18:16 42.22592 -83.35007 650 ft 0 kts 208°
2026-05-05 18:16 42.22582 -83.35014 650 ft 0 kts 208°
2026-05-05 18:16 42.22573 -83.35020 650 ft 6 kts 208°
2026-05-05 18:16 42.22538 -83.35046 650 ft 0 kts 209°
2026-05-05 18:17 42.22533 -83.35050 650 ft 5 kts 209°
2026-05-05 18:17 42.22518 -83.35061 651 ft 3 kts 209°
2026-05-05 18:18 42.22515 -83.35063 650 ft 0 kts 210°
2026-05-05 18:18 42.22513 -83.35065 650 ft 0 kts 210°
2026-05-05 18:18 42.22507 -83.35069 650 ft 0 kts 210°
2026-05-05 18:18 42.22506 -83.35070 650 ft 0 kts 210°
2026-05-05 18:19 42.22486 -83.35086 650 ft 9 kts 210°
2026-05-05 18:19 42.22415 -83.35177 650 ft 19 kts 233°
2026-05-05 18:19 42.22316 -83.35316 651 ft 19 kts 216°
2026-05-05 18:19 42.22197 -83.35414 650 ft 23 kts 208°
2026-05-05 18:20 42.22062 -83.35516 649 ft 25 kts 213°
2026-05-05 18:20 42.21923 -83.35582 649 ft 14 kts 160°
2026-05-05 18:20 42.21885 -83.35448 649 ft 16 kts 89°
2026-05-05 18:20 42.21855 -83.35337 649 ft 13 kts 144°
2026-05-05 18:21 42.21826 -83.35211 649 ft 17 kts 88°
2026-05-05 18:21 42.21830 -83.35054 650 ft 18 kts 89°
2026-05-05 18:21 42.21832 -83.34879 650 ft 18 kts 91°
2026-05-05 18:21 42.21836 -83.34700 650 ft 19 kts 90°
2026-05-05 18:22 42.21838 -83.34585 651 ft 9 kts 89°
2026-05-05 18:22 42.21868 -83.34494 651 ft 14 kts 37°
2026-05-05 18:22 42.21968 -83.34420 650 ft 18 kts 29°
2026-05-05 18:22 42.22076 -83.34341 650 ft 19 kts 28°
2026-05-05 18:23 42.22166 -83.34274 649 ft 17 kts 29°
2026-05-05 18:23 42.22282 -83.34185 651 ft 15 kts 32°
2026-05-05 18:23 42.22388 -83.34103 650 ft 20 kts 29°
2026-05-05 18:23 42.22509 -83.34019 651 ft 17 kts 28°
2026-05-05 18:24 42.22624 -83.33934 650 ft 18 kts 31°
2026-05-05 18:24 42.22695 -83.33883 652 ft 9 kts 27°
2026-05-05 18:24 42.22726 -83.33862 651 ft 1 kts 28°
2026-05-05 18:24 42.22746 -83.33847 650 ft 6 kts 28°
2026-05-05 18:25 42.22799 -83.33808 651 ft 11 kts 28°
2026-05-05 18:25 42.22812 -83.33799 651 ft 0 kts 29°
2026-05-05 18:25 42.22814 -83.33797 650 ft 2 kts 29°
2026-05-05 18:25 42.22823 -83.33790 650 ft 0 kts 31°
2026-05-05 18:27 42.22835 -83.33778 650 ft 5 kts 39°
2026-05-05 18:27 42.22852 -83.33741 649 ft 5 kts 76°
2026-05-05 18:27 42.22852 -83.33731 649 ft 0 kts 89°
2026-05-05 18:28 42.22830 -83.33673 650 ft 4 kts 138°
2026-05-05 18:28 42.22794 -83.33653 650 ft 8 kts 173°
2026-05-05 18:28 42.22756 -83.33669 651 ft 0 kts 207°
2026-05-05 18:30 42.22715 -83.33698 652 ft 37 kts 208°
2026-05-05 18:30 42.22118 -83.34146 655 ft 151 kts 208°
2026-05-05 18:30 42.21082 -83.34934 1414 ft 182 kts 213°
2026-05-05 18:30 42.19931 -83.35822 2693 ft 194 kts 213°
2026-05-05 18:31 42.18673 -83.36621 3666 ft 212 kts 202°
2026-05-05 18:31 42.17176 -83.37194 4468 ft 230 kts 201°
2026-05-05 18:31 42.15600 -83.37772 4795 ft 243 kts 201°
2026-05-05 18:31 42.13924 -83.38384 5333 ft 252 kts 201°
2026-05-05 18:32 42.12254 -83.38989 6872 ft 245 kts 202°
2026-05-05 18:32 42.10602 -83.39596 8216 ft 247 kts 202°
2026-05-05 18:32 42.08934 -83.40220 9493 ft 250 kts 203°
2026-05-05 18:32 42.07316 -83.41048 10632 ft 249 kts 213°
2026-05-05 18:33 42.05863 -83.42325 11651 ft 253 kts 221°
2026-05-05 18:33 42.04411 -83.43749 11621 ft 262 kts 220°
2026-05-05 18:33 42.02903 -83.45232 10656 ft 275 kts 220°
2026-05-05 18:33 42.01300 -83.46816 10086 ft 299 kts 220°
2026-05-05 18:34 41.99606 -83.48487 9900 ft 310 kts 220°
2026-05-05 18:34 41.97837 -83.50237 10602 ft 318 kts 220°
2026-05-05 18:34 41.96067 -83.52041 11627 ft 321 kts 221°
2026-05-05 18:34 41.94284 -83.53888 12601 ft 326 kts 221°
2026-05-05 18:35 41.92477 -83.55772 13456 ft 332 kts 221°
2026-05-05 18:35 41.90646 -83.57679 13756 ft 334 kts 221°
2026-05-05 18:35 41.88800 -83.59590 13848 ft 335 kts 221°
2026-05-05 18:35 41.86949 -83.61497 13870 ft 335 kts 221°
2026-05-05 18:36 41.85098 -83.63400 13874 ft 335 kts 221°
2026-05-05 18:36 41.83244 -83.65303 13876 ft 335 kts 221°
2026-05-05 18:36 41.81400 -83.67193 13874 ft 335 kts 221°
2026-05-05 18:36 41.79542 -83.69097 13876 ft 337 kts 221°
2026-05-05 18:37 41.77679 -83.71006 13978 ft 337 kts 221°
2026-05-05 18:37 41.75796 -83.72935 14675 ft 342 kts 220°
2026-05-05 18:37 41.73894 -83.74883 15563 ft 346 kts 221°
2026-05-05 18:37 41.71971 -83.76849 16421 ft 350 kts 221°
2026-05-05 18:38 41.70014 -83.78829 17294 ft 355 kts 219°
2026-05-05 18:38 41.67895 -83.80600 18167 ft 362 kts 215°
2026-05-05 18:38 41.65753 -83.82330 18942 ft 366 kts 216°
2026-05-05 18:38 41.63559 -83.84096 19722 ft 370 kts 216°
2026-05-05 18:39 41.61335 -83.85882 20476 ft 375 kts 216°
2026-05-05 18:39 41.59084 -83.87686 21158 ft 379 kts 216°
2026-05-05 18:39 41.56805 -83.89514 21833 ft 383 kts 216°
2026-05-05 18:39 41.54509 -83.91356 22486 ft 387 kts 216°
2026-05-05 18:40 41.52185 -83.93214 23097 ft 392 kts 217°
2026-05-05 18:40 41.49828 -83.95093 23649 ft 396 kts 217°
2026-05-05 18:40 41.47455 -83.96984 24173 ft 396 kts 217°
2026-05-05 18:40 41.45079 -83.98867 24737 ft 399 kts 217°
2026-05-05 18:41 41.42677 -84.00749 25336 ft 402 kts 217°
2026-05-05 18:41 41.40285 -84.02684 25918 ft 402 kts 218°
2026-05-05 18:41 41.37925 -84.04648 26755 ft 397 kts 217°
2026-05-05 18:41 41.35564 -84.06545 27681 ft 393 kts 216°
2026-05-05 18:42 41.33260 -84.08356 28530 ft 389 kts 216°
2026-05-05 18:42 41.30938 -84.10197 29378 ft 386 kts 217°
2026-05-05 18:42 41.28628 -84.12012 30128 ft 385 kts 216°
2026-05-05 18:42 41.26352 -84.13877 30744 ft 383 kts 219°
2026-05-05 18:43 41.24191 -84.15933 31340 ft 380 kts 224°
2026-05-05 18:43 41.22238 -84.18277 31897 ft 377 kts 230°
2026-05-05 18:43 41.20724 -84.21134 31570 ft 389 kts 249°
2026-05-05 18:43 41.20122 -84.24664 31776 ft 393 kts 260°
2026-05-05 18:44 41.19695 -84.28216 32580 ft 386 kts 259°
2026-05-05 18:44 41.18986 -84.31622 33387 ft 381 kts 251°
2026-05-05 18:44 41.18143 -84.34935 34000 ft 378 kts 254°
2026-05-05 18:44 41.17352 -84.38230 34173 ft 371 kts 253°
2026-05-05 18:45 41.16652 -84.41601 33216 ft 384 kts 258°
2026-05-05 18:45 41.16254 -84.45072 33051 ft 379 kts 261°
2026-05-05 18:45 41.15825 -84.48552 32079 ft 382 kts 257°
2026-05-05 18:45 41.14843 -84.51794 29592 ft 403 kts 244°
2026-05-05 18:46 41.13622 -84.54804 30526 ft 364 kts 243°
2026-05-05 18:46 41.12739 -84.57597 32282 ft 309 kts 252°
2026-05-05 18:46 41.11994 -84.60370 31700 ft 322 kts 252°
2026-05-05 18:46 41.11344 -84.63212 31623 ft 321 kts 256°
2026-05-05 18:47 41.09900 -84.68754 31052 ft 330 kts 253°
2026-05-05 18:47 41.09281 -84.71675 31218 ft 320 kts 257°
2026-05-05 18:47 41.08843 -84.74531 31376 ft 312 kts 260°
2026-05-05 18:48 41.08550 -84.77342 31546 ft 305 kts 263°
2026-05-05 18:48 41.08382 -84.80109 31721 ft 297 kts 265°
2026-05-05 18:48 41.08308 -84.82783 31882 ft 291 kts 265°
2026-05-05 18:48 41.08098 -84.85438 31893 ft 288 kts 261°
2026-05-05 18:49 41.07738 -84.88028 31923 ft 284 kts 258°
2026-05-05 18:49 41.07283 -84.90561 31976 ft 281 kts 256°
2026-05-05 18:49 41.06775 -84.93038 32043 ft 276 kts 255°
2026-05-05 18:49 41.06231 -84.95467 32015 ft 275 kts 254°
2026-05-05 18:50 41.05691 -84.97671 31979 ft 274 kts 253°
2026-05-05 18:50 41.05131 -84.99862 31922 ft 264 kts 253°
2026-05-05 18:50 41.04551 -85.02109 30760 ft 261 kts 253°
2026-05-05 18:50 41.04038 -85.04435 29968 ft 261 kts 255°
2026-05-05 18:51 41.03668 -85.06255 30095 ft 239 kts 256°